Location: An Tulaigh
(53.1928°N, 8.1647°W)
Time: 00:54:50
(UTC+00:00)

USA 290 - Pass Details

Date: 15 May 2026
Orbit: 396 x 415 km, 73.6° (Epoch: 30 October)

Event Time Altitude Azimuth Distance (km) Brightness Sun altitude
Exits shadow 22:50:30 12° 220° (SW) 1,328 4.5 -14.7°
Maximum altitude 22:53:21 57° 299° (WNW) 468 2.7 -14.9°
Drops below altitude 10° 22:56:27 10° 20° (NNE) 1,437 5.6 -15.0°
Sets 22:58:30 0° 25° (NNE) 2,297 6.7 -15.2°
